Home > Weather > Riverside > Past weeks

Flag for USA Past Weather in Riverside, California, USA — Yesterday and Last 2 Weeks

Now
97 °F

Sunny.


Feels Like: 95 °F
Forecast: 67 / 99 °F
Wind: 12 mph from West

Location: Riverside Municipal Airport

Current Time: Jun 28, 2016 at 5:08:45 PM

Latest Report: Jun 28, 2016 at 3:53 PM


Visibility: 10 mi

Pressure: 29.83 "Hg

Humidity: 25%

Dew Point: 56 °F

Location of RiversideLocation

Past Weather in Riverside — Graph

°F

Riverside Temperature Yesterday

Maximum temperature yesterday: 98 °F (at 12:53 PM)
Minimum temperature yesterday: 70 °F (at 4:53 AM)
Average temperature yesterday: 83 °F

High & Low Weather Summary for the Past Weeks

 TemperatureHumidityPressure
High113 °F (Jun 20, 12:53 PM)87% (Jun 14, 4:53 AM)30.01 "Hg (Jun 14, 4:53 AM)
Low57 °F (Jun 14, 3:53 AM)4% (Jun 19, 12:53 PM)29.75 "Hg (Jun 25, 3:53 PM)
Average78 °F46%29.89 "Hg
* Reported Jun 13 3:53 PM — Jun 28 3:53 PM, Riverside, Weather by CustomWeather, © 2016

Note: Actual official high and low records may vary slightly from our data, if they occured in-between our weather recording intervals... More about our weather records

Advertising

Riverside Weather History for the Previous 24 Hours

Scroll right to see more
 ConditionsComfort  
Time TempWeatherWind HumidityBarometerVisibility
3:53 PM
Tue, Jun 28
97 °FSunny.12 mph25%29.83 "Hg10 mi
2:53 PM98 °FScattered clouds.13 mph27%29.84 "Hg10 mi
1:53 PM98 °FScattered clouds.13 mph27%29.86 "Hg10 mi
12:53 PM97 °FSunny.9 mph28%29.87 "Hg10 mi
11:53 AM95 °FScattered clouds.8 mph26%29.88 "Hg10 mi
10:53 AM90 °FPartly sunny.3 mph37%29.90 "Hg10 mi
9:53 AM86 °FPartly sunny.No wind43%29.91 "Hg10 mi
8:53 AM79 °FPartly sunny.No wind56%29.92 "Hg10 mi
7:53 AM76 °FPartly sunny.No wind62%29.92 "Hg9 mi
6:53 AM73 °FPartly sunny.No wind69%29.92 "Hg10 mi
5:53 AM72 °FPassing clouds.No wind68%29.90 "Hg10 mi
4:53 AM72 °FClear.No wind68%29.90 "Hg10 mi
3:53 AM72 °FClear.No wind68%29.88 "Hg10 mi
2:53 AM72 °FClear.10 mph68%29.87 "Hg10 mi
1:53 AM74 °FClear.3 mph62%29.88 "Hg10 mi
12:53 AM75 °FClear.3 mph60%29.88 "Hg10 mi
11:53 PM
Mon, Jun 27
78 °FClear.3 mph54%29.87 "Hg10 mi
10:53 PM79 °FClear.3 mph50%29.89 "Hg10 mi
9:53 PM81 °FClear.7 mph45%29.88 "Hg10 mi
8:53 PM84 °FSunny.5 mph41%29.85 "Hg10 mi
7:53 PM89 °FSunny.5 mph32%29.83 "Hg10 mi
6:53 PM93 °FSunny.10 mph28%29.84 "Hg10 mi
5:53 PM95 °FPartly sunny.10 mph25%29.82 "Hg10 mi
Weather by CustomWeather, © 2016

See weather overviewHow to use our weather pages